Weather History for Aurora, OR

Change the Weather History Date:

Sunday, March 10, 2013

  Actual Average Record
Temperature  
Mean Temperature 43 °F -  
Max Temperature 50 °F - 73 °F (2005)
Min Temperature 35 °F - 30 °F (2006)
Degree Days  
Heating Degree Days 22    
Month to date heating degree days 199  
Since 1 July heating degree days 3324  
Cooling Degree Days 0    
Month to date cooling degree days 0  
Year to date cooling degree days 0  
Moisture  
Dew Point 39 °F    
Average Humidity 82    
Maximum Humidity 92    
Minimum Humidity 71    
Precipitation  
Precipitation T in - 0.97 in (1997)
Month to date precipitation 0.61  
Year to date precipitation 4.29  
Sea Level Pressure  
Sea Level Pressure 30.47 in    
Wind  
Wind Speed 1 mph (North)    
Max Wind Speed 6 mph    
Max Gust Speed 7 mph    
Visibility 10 miles    
Events      
T = Trace of Precipitation, MM = Missing Value Source: NWS Daily Summary

Daily Weather History Graph

Daily Weather History Graph

Search for Another Location

Airport:

Trip Planner

Search our weather history database for the weather conditions in past years. The results will help you decide how hot, cold, wet, or windy it might be!

Date:

Astronomy

Mar. 10, 2013 Rise Set
Actual Time 7:32 AM PDT 7:10 PM PDT
Civil Twilight 7:02 AM PDT 7:40 PM PDT
Nautical Twilight 6:28 AM PDT 8:14 PM PDT
Astronomical Twilight 5:54 AM PDT 8:49 PM PDT
Moon 6:36 AM PDT (3/10) 6:24 PM PDT (3/10)
Length of Visible Light 12h 37m
Length of Day
11h 38m
Waning Crescent, 1% of the Moon is Illuminated
Mar 10
Waning Crescent
Mar 11
New
Mar 19
First Quarter
Mar 27
Full
Apr 2
Last Quarter

Hourly Weather History & Observations

Time (PDT) Temp. Windchill Dew Point Humidity Pressure Visibility Wind Dir Wind Speed Gust Speed Precip Events Conditions
12:53 AM 37.9 °F - 34.0 °F 86% 30.50 in 10.0 mi Calm Calm - N/A   Clear
1:53 AM 36.0 °F - 33.1 °F 89% 30.51 in 10.0 mi Calm Calm - N/A   Clear
3:53 AM 36.0 °F - 34.0 °F 93% 30.50 in 10.0 mi Calm Calm - N/A   Clear
5:53 AM 36.0 °F - 34.0 °F 93% 30.52 in 10.0 mi Calm Calm - N/A   Mostly Cloudy
6:53 AM 37.0 °F - 34.0 °F 89% 30.51 in 10.0 mi Calm Calm - N/A   Mostly Cloudy
7:53 AM 37.0 °F - 34.0 °F 89% 30.50 in 10.0 mi Calm Calm - N/A   Mostly Cloudy
8:53 AM 37.9 °F - 34.0 °F 86% 30.51 in 10.0 mi Calm Calm - N/A   Overcast
9:53 AM 41.0 °F - 35.1 °F 79% 30.51 in 10.0 mi Calm Calm - N/A   Overcast
10:53 AM 43.0 °F - 37.0 °F 80% 30.50 in 10.0 mi Calm Calm - N/A   Overcast
11:53 AM 44.1 °F - 37.0 °F 76% 30.49 in 10.0 mi Calm Calm - N/A   Overcast
12:53 PM 46.0 °F - 37.9 °F 73% 30.48 in 10.0 mi Calm Calm - N/A   Overcast
1:53 PM 48.0 °F - 39.0 °F 71% 30.47 in 10.0 mi NNE 3.5 mph - N/A   Overcast
2:53 PM 48.9 °F - 39.9 °F 71% 30.45 in 10.0 mi NW 3.5 mph - N/A   Overcast
3:06 PM 50.0 °F - 41.0 °F 71% 30.45 in 10.0 mi Calm Calm - N/A   Overcast
3:53 PM 50.0 °F - 41.0 °F 71% 30.45 in 10.0 mi Calm Calm - N/A   Overcast
4:53 PM 50.0 °F - 41.0 °F 71% 30.44 in 10.0 mi Calm Calm - N/A   Overcast
5:53 PM 48.9 °F - 41.0 °F 74% 30.44 in 10.0 mi Calm Calm - N/A   Overcast
6:53 PM 48.0 °F - 42.1 °F 80% 30.43 in 10.0 mi Calm Calm - 0.00 in   Overcast
7:53 PM 46.9 °F - 43.0 °F 86% 30.45 in 10.0 mi North 3.5 mph - N/A   Overcast
8:53 PM 46.0 °F 43.9 °F 43.0 °F 89% 30.44 in 10.0 mi North 4.6 mph - N/A   Overcast
9:53 PM 46.9 °F - 43.0 °F 86% 30.44 in 10.0 mi Calm Calm - N/A   Overcast
10:53 PM 46.9 °F - 43.0 °F 86% 30.45 in 10.0 mi Calm Calm - N/A   Overcast
11:53 PM 46.0 °F - 43.0 °F 89% 30.44 in 10.0 mi Calm Calm - N/A   Overcast
12:53 AM 44.1 °F - 43.0 °F 96% 30.43 in 9.0 mi Calm Calm - N/A   Overcast